map of RRG home
RRG - Airport
Location
City:  Plaine Corail, Rodrigues Island, Mauritius
Name:Sir Gaėtan Duval Airport
Old (Alt.):Plaine Corail Airport
ICAO:FIMR
IATA:RRG

Details
Type:Airport (Aerodrome, Airfield)
Use:Public/Civil
Latitude:19°45'28"S (-19.757777)
Longitude:63°21'41"E (63.361389)
Elevation:93 ft (28 m)
Variation:17.14°W (WMM2015v2 magnetic declination)
0.06° annual change
Runways:1
Longest:4222 × 98 ft (1287 × 30 m), paved

Time
Time Zone:UTC+4
Local Time:

Weather
METAR:FIMR 041400Z 06008KT 9999 SCT018 30/26 Q1012
TAF:FIMR 041120Z 0412/0506 07010KT 9999 SCT017 PROB30
TEMPO 0418/0504 7000 -SHRA FEW010 BKN016 BKN050

Related Locations
Nearby:
Farthest:MMSL: 11960 mi / 19247 km
Los Cabos [Aeropuerto Cabo San Lucas], BCS, MX

Find:

   beyond  
but within

Other Information
Maps:
NOTAMs:
Links:
Sources:

  
  • flag of Mauritius
  

Airport Diagram

Airport diagram for RRG

Airport diagram PDF

Sectional Chart

Flight Planning
at skyvector.com

Satellite Image

Google Maps Satellite view

 

Copyright © 2004-2019 Karl L. Swartz. All rights reserved.
The Great Circle Mapper name and logo are trademarks of the Great Circle Mapper.
All other trademarks mentioned herein belong to their respective owners.
Please see credits for attibutions and further copyright information.

  Follow gcmap on Facebook Follow gcmap on Twitter GCmap on LinkedIn

hCard Microformat

Geo Microformat